Regional Weather Roundup
Issued by NWS

Home | Current Version | Previous Version | Text Only | Print | Product List | Glossary Off
Versions: 1 2 3 4 5 6 7 8 9 10 11 12 13 14 15 16 17 18 19 20 21 22 23 24 25 26 27 28 29 30 31 32 33 34 35 36 37 38 39 40 41 42 43 44 45 46 47 48 49 50

000
ASUS43 KDTX 031110
RWRMI
MICHIGAN HOURLY REGIONAL WEATHER ROUNDUP
NATIONAL WEATHER SERVICE DETROIT/PONTIAC MI
ISSUED BY NATIONAL WEATHER SERVICE GRAND RAPIDS MI
600 AM EST SAT DEC 03 2016

NOTE: "FAIR" INDICATES FEW OR NO CLOUDS BELOW 12,000 FEET WITH NO
SIGNIFICANT WEATHER AND/OR OBSTRUCTION TO VISIBILITY.

MIZ047>049-052>055-059>063-066>070-074>076-081>083-031200-
SOUTHEAST LOWER MICHIGAN

CITY           SKY/WX    TMP DP  RH WIND       PRES   REMARKS
ADRIAN         CLOUDY    34  30  85 W5        30.29R WCI  30
ANN ARBOR      CLOUDY    29  28  96 CALM      30.27R
DETROIT CITY   CLOUDY    35  29  78 W6        30.27R WCI  30
DETROIT        CLOUDY    35  29  78 W7        30.29R WCI  29
FLINT          CLOUDY    33  29  85 W8        30.26R WCI  26
GROSSE ILE     CLOUDY    35  29  79 NW6       30.27S WCI  30

CITY           SKY/WX    TMP DP  RH WIND       PRES   REMARKS
JACKSON        CLOUDY    34  28  79 W6        30.27S WCI  29
LANSING        CLOUDY    35  28  75 W6        30.28R WCI  30
MASON          CLOUDY    35  30  83 W5        30.27S WCI  30
MONROE         CLOUDY    35  32  88 W5        30.28R WCI  31
MT. CLEMENS    CLOUDY    36  31  79 NW6       30.24R WCI  32
PONTIAC        MOCLDY    32  28  85 W7        30.24R WCI  26
PORT HOPE        N/A     40  33  76 NW12      30.19R WCI  33
PORT HURON     CLOUDY    36  32  87 W7        30.24R WCI  30
TRI CITIES     CLOUDY    34  31  88 W8        30.26R WCI  27
YPSILANTI      CLOUDY    35  30  82 W5        30.28R WCI  31
$$
MIZ043>046-050>051-056>058-064>065-071>073-077>080-031200-
SOUTHWEST LOWER MICHIGAN

CITY           SKY/WX    TMP DP  RH WIND       PRES   REMARKS
BATTLE CREEK   CLOUDY    35  31  85 W5        30.28S WCI  31
BENTON HARBOR  CLOUDY    37  27  67 W3        30.31R
HOLLAND        CLOUDY    37  29  72 W7        30.29S WCI  32
GRAND RAPIDS   CLOUDY    35  30  82 W5        30.28S WCI  31
KALAMAZOO      CLOUDY    36  28  73 W3        30.29R
MARSHALL       CLOUDY    34  32  90 CALM      30.28S
$$
MIZ016>042-031200-
NORTHERN LOWER MICHIGAN

CITY           SKY/WX    TMP DP  RH WIND       PRES   REMARKS
ALPENA         CLOUDY    36  32  85 W5        30.20R WCI  32
GAYLORD        CLOUDY    35  32  88 NW3       30.19R FOG
HOUGHTON LAKE  CLOUDY    35  33  92 W7        30.21  WCI  29
OSCODA         CLOUDY    38  33  82 W5        30.20S WCI  34
PELLSTON       CLOUDY    36  31  82 NW5       30.22R WCI  32
TRAVERSE CITY  CLOUDY    38  34  85 CALM      30.23R
$$
MIZ007>008-015-031200-
EASTERN UPPER MICHIGAN

CITY           SKY/WX    TMP DP  RH WIND       PRES   REMARKS
MACKINAC ISLAN CLOUDY    35  32  90 NW8G16    30.20R WCI  28
S. S. MARIE    MOCLDY    32  30  92 W5        30.18R WCI  27
$$
MIZ004>006-011>014-085-031200-
CENTRAL UPPER MICHIGAN

CITY           SKY/WX    TMP DP  RH WIND       PRES   REMARKS
$$
MIZ001>003-009>011-084-031200-
WESTERN UPPER MICHIGAN

CITY           SKY/WX    TMP DP  RH WIND       PRES   REMARKS
IRON MOUNTAIN  CLOUDY    32  26  78 CALM      30.22S
HOUGHTON       CLOUDY    31  27  85 CALM      30.21S
COPPER HARBOR    N/A     35  28  75 NE7       30.23S WCI  29
IRONWOOD       CLOUDY    28  27  93 SW5       30.24S WCI  23
$$

ABBREVIATIONS USED IN REMARKS
   TC - TEMPERATURE IN CELSIUS
  WCI - WIND CHILL INDEX
   HX - HEAT INDEX
  VSB - VISIBILITY





USA.gov is the U.S. government's official web portal to all federal, state and local government web resources and services.